Buckland Airport
PABL : now visible

Aeroporto :











RITROVATECI SU...

 
LOGIN :

Iscrizione | Disclaimer

   EN    FR    IT 

 









Sommario :    VFR   VFR Marginale   IFR   IFR Intensivo   IFR Molto Intensivo
Visibilità : 
Base nubi : 
>= 8 km
>= 3000ft
5 / 8 km
1000 / 3000 ft
1500m / 5 km
500 / 1000 ft
800 / 1500m
200 / 500 ft
< 800m
< 200 ft
Simboli :   Temporali  Nebbia  Neve Forte  Precipitazioni Forti  Vento > 20 kt






- Altitudine del aeroporto : 31 ft
- Codice IATA : BVK


PABL - Buckland

ULTIMO METAR :
  • 010556Z AUTO 34006KT 10SM OVC046 M13/M15 A2917 RMK AO2 SNE22 SLP880 P0000 60000 T11331150 11133 21156 58026 FZRANO

METARs OBSOLETI :
  • 010456Z AUTO 31007KT 9SM -SN OVC046 M14/M16 A2920 RMK AO2 SNE16B36 SLP891 P0000 T11391156 FZRANO

TAF N/A
FIR PAZA / America del Nord



MetMap, La meteo Aeronautica in un colpo d'occhio ! - Copyright ORBIFLY Dicembre 2007 - Disclaimer

ORBIFLY MET'MAP TEAM :

Programmazione e sviluppo : Alexandra Zaïnal
Concezione : Baudouin d'Aumeries
Aiuto per la programmazione : Marc-Olivier Méhu
Supporto tecnico e logistico : Manuel Goepfert
Aiuto per la traduzione : Arnaldo La Scala

Contatto : metmap@orbifly.com




FONTI E CREDITI :

   NOAA       Earth
Advisory